DW2182 Weather Reports


time (UTC)temp
C
wind
direction
speed
KPH
gust
KPH
rain 1hr
cm
rain 24hr
cm
rain mn
cm
humidity
%
barometer
mb
20260904104517 22 0.0 0.0 0.00 0.08 0.00 95 1009.6
20260904103517 22 0.0 0.0 0.00 0.08 0.00 94 1009.6
20260904102517 23 0.0 0.0 0.00 0.10 0.00 94 1009.5
20260904101517 23 0.0 0.0 0.00 0.10 0.00 93 1009.4
20260904100537 23 0.0 0.0 0.00 0.10 0.00 93 1009.4
20260904095517 23 0.0 1.6 0.00 0.13 0.00 93 1009.3
20260904094517 23 90 3.2 4.8 0.00 0.13 0.00 93 1009.4
20260904093537 23 90 4.8 11.3 0.00 0.15 0.00 92 1009.2
20260904092518 23 90 6.4 11.3 0.00 0.18 0.00 92 1009.2
20260904091517 23 90 3.2 4.8 0.00 0.18 0.00 92 1009.2
20260904090517 24 90 4.8 9.7 0.00 0.18 0.00 91 1009.2
20260904085517 24 90 4.8 9.7 0.00 0.18 0.00 91 1009.2
20260904084517 24 90 6.4 11.3 0.00 0.18 0.00 91 1009.2
20260904083517 24 90 4.8 9.7 0.00 0.18 0.00 91 1009.0
20260904082517 25 90 3.2 6.4 0.00 0.18 0.00 91 1009.1
20260904081517 25 90 4.8 9.7 0.00 0.18 0.00 90 1009.1
20260904080537 25 90 6.4 12.9 0.00 0.18 0.00 90 1009.1
20260904075517 25 90 8.0 12.9 0.00 0.18 0.00 90 1009.2
20260904074517 25 90 6.4 11.3 0.00 0.18 0.00 91 1009.3
20260904073517 25 90 6.4 11.3 0.00 0.18 0.00 91 1009.1
20260904072517 25 90 6.4 11.3 0.00 0.18 0.00 91 1009.3
20260904071517 25 90 4.8 11.3 0.00 0.18 0.00 92 1009.2
20260904070517 25 90 8.0 14.5 0.00 0.18 0.00 92 1009.2
20260904065517 25 90 9.7 14.5 0.00 0.18 0.00 93 1009.2
20260904064517 25 90 6.4 11.3 0.00 0.18 0.00 93 1009.2
20260904063537 25 90 4.8 11.3 0.00 0.18 0.00 93 1009.2
20260904062517 25 90 4.8 14.5 0.00 0.18 0.00 93 1009.3
20260904061517 25 90 3.2 9.7 0.00 0.18 0.00 93 1009.3
20260904060517 25 90 4.8 14.5 0.00 0.18 0.00 93 1009.1
20260904055517 25 90 4.8 12.9 0.00 0.18 0.00 93 1009.1
20260904054537 25 90 3.2 11.3 0.00 0.18 0.00 93 1009.0
20260904053517 25 90 3.2 4.8 0.00 0.18 0.00 93 1009.0
20260904052517 25 90 4.8 11.3 0.00 0.18 0.00 92 1008.8
20260904051517 25 90 4.8 8.0 0.00 0.18 0.00 91 1008.8
20260904050517 25 90 8.0 11.3 0.00 0.18 0.00 91 1008.7
20260904045517 25 90 8.0 14.5 0.00 0.18 0.18 91 1008.7
20260904044517 25 90 6.4 12.9 0.00 0.18 0.18 91 1008.6
20260904043517 25 90 3.2 6.4 0.00 0.18 0.18 91 1008.6
20260904042517 25 90 4.8 11.3 0.00 0.18 0.18 91 1008.6
20260904041518 25 90 1.6 4.8 0.00 0.18 0.18 92 1008.8
20260904040537 25 90 3.2 11.3 0.00 0.18 0.18 92 1009.0
20260904035517 25 0.0 0.0 0.00 0.18 0.18 92 1009.0
20260904034517 25 90 1.6 3.2 0.00 0.18 0.18 91 1008.8
20260904033537 25 90 1.6 4.8 0.00 0.18 0.18 90 1008.8
20260904032537 25 90 1.6 3.2 0.00 0.18 0.18 89 1008.8
20260904031517 25 90 1.6 4.8 0.00 0.18 0.18 89 1008.9
20260904030537 25 90 3.2 6.4 0.00 0.18 0.18 89 1008.7
20260904025517 25 90 1.6 6.4 0.00 0.18 0.18 89 1008.6
20260904024538 25 0.0 0.0 0.00 0.18 0.18 89 1008.7
20260904023517 26 90 1.6 4.8 0.00 0.18 0.18 88 1008.4
20260904022517 26 90 4.8 11.3 0.00 0.18 0.18 87 1008.5
20260904021517 26 90 6.4 11.3 0.00 0.18 0.18 88 1008.4
20260904020517 26 90 6.4 9.7 0.00 0.18 0.18 89 1008.4
20260904015517 26 90 3.2 6.4 0.00 0.18 0.18 89 1008.2
20260904014517 26 90 1.6 3.2 0.00 0.18 0.18 88 1008.0
20260904013537 26 90 3.2 9.7 0.00 0.18 0.18 89 1007.9
20260904012557 26 90 1.6 4.8 0.00 0.18 0.18 89 1007.8
20260904011516 26 90 1.6 4.8 0.00 0.18 0.18 88 1007.6
20260904010517 26 90 4.8 12.9 0.00 0.18 0.18 87 1007.4
20260904005517 26 68 1.6 4.8 0.00 0.18 0.18 88 1007.2
20260904004517 27 68 1.6 6.4 0.00 0.18 0.18 87 1007.3
20260904003517 27 68 1.6 4.8 0.00 0.18 0.18 86 1007.3
20260904002517 27 68 1.6 4.8 0.00 0.18 0.18 86 1007.4
20260904001517 27 90 3.2 6.4 0.00 0.18 0.18 86 1007.4
20260904000557 27 90 3.2 11.3 0.00 0.18 0.18 84 1007.2
20260903235517 27 68 3.2 8.0 0.00 0.18 0.18 84 1007.4
20260903234517 28 68 1.6 4.8 0.00 0.18 0.18 82 1007.1
20260903233517 28 68 3.2 6.4 0.00 0.18 0.18 81 1006.6
20260903232517 28 90 3.2 6.4 0.00 0.18 0.18 78 1007.2
20260903231517 28 68 4.8 12.9 0.00 0.18 0.18 76 1007.1
20260903230516 29 90 9.7 16.1 0.00 0.18 0.18 75 1007.2
20260903225537 30 90 11.3 17.7 0.00 0.18 0.18 73 1007.6
20260903224516 30 90 11.3 17.7 0.00 0.18 0.18 71 1007.4
20260903223517 30 90 11.3 19.3 0.00 0.18 0.18 71 1007.5
20260903222517 30 90 8.0 19.3 0.00 0.18 0.18 70 1007.1
20260903221517 30 90 9.7 17.7 0.00 0.18 0.18 71 1006.9
20260903220537 30 90 11.3 17.7 0.00 0.18 0.18 71 1006.6
20260903215516 31 68 4.8 12.9 0.00 0.18 0.18 71 1006.4
20260903214557 31 68 6.4 14.5 0.00 0.18 0.18 70 1006.6
20260903213517 31 90 8.0 14.5 0.00 0.18 0.18 69 1006.7
20260903212536 31 90 9.7 24.1 0.00 0.18 0.18 67 1007.0
20260903211556 31 90 11.3 16.1 0.00 0.18 0.18 66 1007.2
20260903210537 31 90 12.9 20.9 0.00 0.18 0.18 67 1007.6
20260903205537 31 90 12.9 19.3 0.00 0.18 0.18 67 1007.6
20260903204536 30 90 14.5 20.9 0.00 0.18 0.18 67 1007.7
20260903203516 30 90 12.9 22.5 0.00 0.18 0.18 68 1007.5
20260903202516 30 90 9.7 19.3 0.00 0.18 0.18 68 1007.5
20260903201516 30 90 14.5 30.6 0.00 0.18 0.18 65 1007.5
20260903200517 31 90 14.5 25.7 0.00 0.18 0.18 65 1007.9
20260903195516 31 90 16.1 29.0 0.00 0.18 0.18 63 1007.5
20260903194517 31 90 19.3 32.2 0.00 0.18 0.18 62 1007.8
20260903193516 31 90 14.5 25.7 0.00 0.18 0.18 66 1007.6
20260903192518 31 90 14.5 24.1 0.00 0.18 0.18 64 1007.5
20260903191517 31 90 20.9 33.8 0.00 0.18 0.18 62 1007.6
20260903190516 31 90 19.3 30.6 0.00 0.18 0.18 63 1007.7
20260903185516 31 90 20.9 41.8 0.00 0.18 0.18 64 1007.9
20260903184516 30 90 19.3 38.6 0.00 0.18 0.18 65 1007.7
20260903183516 31 90 19.3 30.6 0.00 0.18 0.18 65 1008.0
20260903182517 31 90 17.7 32.2 0.00 0.18 0.18 66 1008.0
20260903181516 30 90 16.1 30.6 0.00 0.18 0.18 67 1008.2
20260903180516 30 90 17.7 27.4 0.00 0.18 0.18 69 1008.4
20260903175516 29 90 14.5 20.9 0.00 0.18 0.18 71 1008.3
20260903174537 28 90 17.7 29.0 0.00 0.18 0.18 73 1008.3
20260903173516 28 90 12.9 25.7 0.00 0.18 0.18 74 1008.4
20260903172516 27 90 14.5 20.9 0.00 0.18 0.18 74 1008.4
20260903171516 26 90 16.1 25.7 0.00 0.18 0.18 75 1008.4
20260903170516 27 90 11.3 24.1 0.03 0.18 0.18 74 1008.5
20260903165516 28 90 14.5 25.7 0.03 0.18 0.18 72 1008.7
20260903164516 27 90 14.5 29.0 0.03 0.18 0.18 74 1008.7
20260903163557 27 90 12.9 24.1 0.03 0.20 0.18 73 1008.7
20260903162536 26 90 9.7 19.3 0.03 0.20 0.18 75 1008.6
20260903161516 28 90 12.9 25.7 0.03 0.20 0.18 71 1008.8
20260903160516 28 90 16.1 32.2 0.00 0.18 0.15 71 1008.9
20260903155517 28 90 17.7 33.8 0.00 0.18 0.15 72 1009.0
20260903154516 27 90 12.9 25.7 0.00 0.18 0.15 74 1008.9
20260903153516 27 90 14.5 27.4 0.00 0.18 0.15 76 1009.0
20260903152516 27 90 11.3 30.6 0.00 0.18 0.15 77 1009.0
20260903151536 26 90 12.9 25.7 0.00 0.18 0.15 79 1008.9
20260903150536 26 68 8.0 19.3 0.00 0.18 0.15 81 1009.1
20260903145516 26 90 9.7 17.7 0.00 0.20 0.15 82 1009.2
20260903144516 25 90 9.7 24.1 0.00 0.20 0.15 82 1009.3
20260903143516 25 90 9.7 19.3 0.00 0.20 0.15 82 1009.5
20260903142516 25 68 6.4 14.5 0.00 0.20 0.15 81 1009.2
20260903141516 25 68 4.8 16.1 0.00 0.20 0.15 82 1009.1
20260903140516 25 68 4.8 12.9 0.00 0.20 0.15 81 1009.0
20260903135556 24 68 4.8 16.1 0.03 0.20 0.15 81 1009.0
20260903134516 23 68 3.2 16.1 0.03 0.20 0.15 83 1008.9
20260903133516 23 68 3.2 6.4 0.03 0.20 0.15 84 1009.0
20260903132516 22 68 3.2 9.7 0.03 0.23 0.15 86 1009.0
20260903131516 22 68 3.2 8.0 0.03 0.23 0.15 86 1009.1
20260903130536 22 68 3.2 8.0 0.03 0.23 0.15 86 1009.1
20260903125517 22 90 3.2 9.7 0.00 0.20 0.13 87 1009.2
20260903124516 22 45 3.2 6.4 0.00 0.20 0.13 87 1009.2
20260903123516 22 68 3.2 11.3 0.03 0.20 0.13 88 1009.0
20260903122516 22 45 4.8 8.0 0.03 0.20 0.13 87 1009.0
20260903121516 22 68 3.2 8.0 0.03 0.20 0.13 87 1009.1
20260903120516 22 90 4.8 12.9 0.03 0.23 0.13 88 1009.0
20260903115517 21 45 3.2 4.8 0.03 0.23 0.13 89 1008.8
20260903114516 21 68 1.6 8.0 0.03 0.23 0.13 90 1008.8
20260903113516 21 68 4.8 12.9 0.00 0.20 0.10 89 1009.0
20260903112516 21 90 3.2 8.0 0.03 0.20 0.10 89 1009.2
20260903111516 21 68 3.2 6.4 0.03 0.23 0.10 90 1008.9
20260903110516 21 68 3.2 9.7 0.03 0.23 0.10 91 1008.7
20260903105536 21 68 1.6 4.8 0.05 0.23 0.10 91 1009.1